Regional Weather Roundup
Issued by NWS

Home | Current Version | Previous Version | Graphics & Text | Print | Product List | Glossary On
Versions: 1 2 3 4 5 6 7 8 9 10 11 12 13 14 15 16 17 18 19 20 21 22 23 24 25 26 27 28 29 30 31 32 33 34 35 36 37 38 39 40 41 42 43 44 45 46 47 48 49 50
000
ASUS43 KLMK 260502
RWRKY
KENTUCKY REGIONAL WEATHER ROUNDUP
NATIONAL WEATHER SERVICE LOUISVILLE KY
100 AM EDT THU MAY 26 2016

NOTE "FAIR" INDICATES FEW OR NO CLOUDS BELOW 12,000 FEET
WITH NO SIGNIFICANT WEATHER AND/OR OBSTRUCTIONS TO VISIBILITY.

KYZ001>023-026-027-061>063-070>075-260600-
WESTERN AND SOUTH CENTRAL KENTUCKY

CITY           SKY/WX    TMP DP  RH WIND       PRES   REMARKS
PADUCAH        MOCLDY    68  63  84 SW6       30.05S
HENDERSON      CLOUDY    66  63  88 SW9       30.03S
OWENSBORO      CLOUDY    68  65  90 SW9       30.05F
HOPKINSVILLE   CLOUDY    65  65 100 S3        30.08R
BOWLING GREEN  CLOUDY    67  64  90 SW5       30.08S
GLASGOW        NOT AVBL
$$

KYZ024-025-028>034-038-045-046-053-260600-
NORTH CENTRAL KENTUCKY

CITY           SKY/WX    TMP DP  RH WIND       PRES   REMARKS
LOUISVILLE/SDF CLOUDY    71  61  70 S7        30.07R
LOUISVILLE/LOU CLOUDY    71  61  70 S5        30.08R
FORT KNOX      MOCLDY    66  63  89 S2        30.06S
$$

KYZ035>037-039>044-047>052-055>060-089>105-260600-
NORTHEAST KENTUCKY

CITY           SKY/WX    TMP DP  RH WIND       PRES   REMARKS
LEXINGTON      PTCLDY    66  62  87 SW5       30.09R
COVINGTON      NOT AVBL
FRANKFORT      CLOUDY    67  61  81 S3        30.07R
$$

KYZ054-064>069-076>088-106>120-260600-
SOUTHEAST KENTUCKY

CITY           SKY/WX    TMP DP  RH WIND       PRES   REMARKS
JACKSON        CLOUDY    71  59  65 S3        30.12F
LONDON         CLOUDY    69  61  75 SE3       30.09F
SOMERSET       NOT AVBL
MIDDLESBORO    NOT AVBL
MONTICELLO     PTCLDY    67  64  90 W12       30.12R
$$





USA.gov is the U.S. government's official web portal to all federal, state and local government web resources and services.